Wind_Speed
13 13 12 12 12 11 11 10 11 11 10 9 8 8 7 6 6 6 7 8 9 10 12 14 16 19 22 26 30 33 35 38 41 43 45 47 49 52 55 58 60 62 63 65
14 13 14 14 14 14 14 13 13 12 11 11 10 9 9 9 9 9 9 10 10 11 13 15 17 21 24 28 31 34 37 40 43 46 48 50 52 54 57 60 63 65 66 68
14 15 15 15 16 16 17 16 14 14 14 14 13 12 12 12 12 12 12 12 12 12 14 17 20 23 26 29 32 35 38 41 45 48 51 53 55 57 59 62 66 68 69 70
15 16 16 17 17 18 18 18 17 16 17 16 16 16 15 15 15 15 16 15 15 15 17 19 22 26 29 31 34 37 40 43 46 49 53 55 57 59 61 64 67 70 71 72
16 16 17 18 19 19 20 20 20 19 20 20 19 19 17 18 18 18 19 19 18 19 20 23 26 29 32 34 37 40 42 45 48 50 54 57 59 61 63 65 68 71 73 74
17 17 18 19 20 21 22 23 23 23 23 22 22 23 20 20 21 21 22 22 23 23 25 27 29 32 35 38 40 42 44 47 49 52 54 57 60 63 64 67 69 72 74 75
18 19 19 20 21 22 23 25 26 27 26 25 25 26 21 23 24 24 25 25 26 27 28 30 32 35 37 40 42 44 46 48 51 53 55 58 61 63 66 68 70 73 75 76
20 20 21 21 23 24 25 26 28 31 30 29 29 29 23 25 26 26 27 28 30 31 31 32 34 37 40 42 45 46 48 50 52 54 56 58 61 64 66 69 71 73 76 77
23 22 22 23 24 26 27 28 31 34 35 34 33 31 27 27 28 29 30 31 32 33 34 35 37 39 42 44 47 49 50 52 53 55 57 58 61 63 66 69 72 74 76 77
26 25 23 24 26 27 29 30 32 35 38 39 37 34 29 27 30 32 33 34 35 36 37 38 40 42 44 47 49 51 52 54 55 56 57 59 61 63 66 69 72 74 76 78
29 28 26 26 27 28 30 31 33 36 39 42 42 36 31 31 33 35 36 37 39 39 40 42 43 44 47 49 51 53 54 56 56 57 58 59 61 62 66 69 72 74 76 77
31 31 29 28 28 29 31 31 34 37 40 43 46 39 31 34 36 38 39 41 43 42 43 44 45 47 49 51 53 55 56 57 58 57 58 59 61 62 65 68 71 74 76 77
32 33 32 30 30 31 33 33 34 38 41 43 46 42 34 35 38 41 44 46 47 46 45 47 48 49 51 52 54 56 58 58 58 58 58 59 61 62 64 68 71 73 75 76
36 35 34 34 33 35 35 35 35 39 41 43 44 43 37 36 39 44 48 50 50 48 48 49 50 51 53 54 55 57 58 59 59 59 59 59 61 62 64 67 70 73 74 75
39 38 37 36 35 38 40 38 37 39 40 44 44 44 39 38 41 46 49 51 51 50 50 51 52 53 54 55 56 58 59 59 59 59 59 59 60 63 64 67 70 72 74 75
41 42 41 40 38 41 44 40 38 39 41 43 44 44 39 41 44 46 48 50 51 51 52 53 54 54 55 56 57 58 58 59 59 59 59 60 61 63 65 67 69 72 73 74
42 44 45 45 43 45 45 39 39 40 41 42 44 44 43 43 44 46 47 49 50 51 52 54 54 55 55 56 58 58 58 58 59 59 59 60 62 63 66 67 69 71 72 73
45 45 47 50 49 51 46 43 42 42 43 42 43 44 44 45 45 46 47 49 50 51 52 53 54 55 56 57 58 58 58 58 59 60 60 61 63 64 66 67 69 70 71 71
47 47 49 52 54 55 49 44 45 47 46 43 45 46 46 46 47 47 48 49 50 52 53 55 56 57 58 58 59 59 59 59 60 61 62 62 64 66 67 68 69 69 70 69
49 49 52 54 57 58 51 49 49 50 49 46 48 48 48 49 49 49 50 52 53 54 56 58 58 59 59 59 60 60 61 62 63 64 64 64 65 67 67 68 68 68 68 68
52 53 54 55 58 58 52 52 53 53 51 51 52 52 53 53 54 54 55 57 58 59 59 60 60 60 61 61 62 62 63 64 65 66 66 66 66 67 68 68 67 67 67 66
55 56 56 57 59 57 53 55 54 55 56 57 57 57 58 58 58 59 59 60 61 62 63 63 62 62 62 63 63 64 64 66 67 67 67 67 67 67 67 67 66 65 65 64
54 55 57 58 57 55 56 57 57 59 61 62 62 62 62 62 62 62 62 62 63 64 64 64 64 63 63 64 64 64 64 66 67 67 67 67 67 66 65 64 63 63 62 62
51 52 56 57 54 53 55 56 58 60 63 64 64 63 63 63 62 62 62 62 62 62 62 63 63 63 62 63 63 63 63 64 64 64 65 65 64 63 63 61 61 60 59 59
48 49 52 52 51 53 53 54 57 59 61 62 62 62 62 62 62 62 61 61 60 59 60 61 61 61 60 60 60 61 61 61 61 61 61 61 61 60 60 59 58 57 56 55
41 43 46 47 46 50 50 51 52 54 55 57 57 57 57 58 58 57 56 56 56 57 57 57 57 57 57 58 58 57 57 57 58 58 58 57 56 56 55 54 53 53 53 52
Wind_Direction
289 290 287 280 273 271 271 268 265 270 276 282 286 286 288 291 296 300 304 308 315 321 328 334 339 343 345 346 345 345 344 343 342 340 339 337 337 337 337 337 336 335 332 330
284 288 288 280 273 268 265 262 261 265 270 274 277 279 281 284 289 292 294 299 306 314 321 329 336 340 343 345 345 345 344 343 343 342 341 340 338 337 336 337 337 336 334 332
280 286 283 276 269 265 263 263 264 266 268 270 273 276 280 281 285 288 290 293 300 310 318 325 332 336 339 341 343 343 343 343 342 342 341 340 339 337 336 336 337 337 336 334
276 283 284 278 272 268 266 265 266 267 268 269 272 274 279 281 283 285 288 292 299 307 315 322 327 331 335 337 339 341 342 342 341 341 340 340 339 338 337 337 337 337 337 336
274 281 283 279 275 272 270 268 267 267 267 268 272 274 277 281 283 286 288 293 299 305 312 318 323 327 331 334 336 338 339 340 340 339 339 339 338 338 337 337 337 337 338 337
276 282 284 281 278 275 272 270 268 266 266 267 269 273 278 281 282 285 288 294 299 305 310 315 319 324 327 330 333 335 336 337 338 338 337 337 337 337 338 338 338 338 338 338
277 282 284 283 280 277 274 272 270 268 267 268 268 271 278 278 282 284 288 294 299 303 308 313 317 321 325 327 329 331 333 334 335 336 336 336 336 337 338 338 338 338 339 339
277 280 284 284 282 280 275 273 271 271 270 268 267 271 278 278 282 284 288 293 297 301 306 310 314 318 321 324 326 328 330 331 332 333 334 334 334 336 337 338 338 339 340 340
279 280 281 282 282 281 278 273 271 271 271 270 269 273 275 278 281 284 288 291 295 299 303 307 311 314 318 321 323 325 327 328 330 331 332 332 333 335 336 338 338 339 340 341
280 281 281 282 282 281 280 278 274 272 273 273 273 273 276 274 277 282 286 288 292 296 300 304 308 312 315 318 320 322 324 326 327 329 330 331 332 333 336 337 338 339 340 341
280 282 282 282 282 282 281 281 279 277 276 277 278 276 276 275 278 282 284 286 289 293 298 302 306 310 313 315 318 320 322 323 325 326 328 329 330 332 334 337 338 339 340 341
281 283 284 283 283 283 282 281 280 279 278 278 280 284 279 277 279 282 283 285 288 292 296 300 304 307 310 313 315 317 319 321 323 324 326 327 328 330 333 336 338 339 340 341
281 283 285 284 284 282 282 281 281 280 280 281 283 291 288 281 279 280 281 283 287 292 295 298 302 305 307 310 312 315 317 319 320 322 324 325 326 329 332 335 337 338 340 341
281 282 284 286 286 284 283 283 283 283 285 285 286 290 287 283 279 276 278 281 286 291 295 297 300 302 305 307 309 312 314 316 318 320 322 323 325 327 330 333 336 337 339 341
281 282 282 283 284 284 283 284 286 287 287 287 289 289 292 286 277 274 276 280 285 290 293 295 297 300 303 305 307 309 312 314 316 318 320 322 324 326 328 331 334 336 338 340
281 282 282 281 281 281 282 287 288 287 287 288 288 289 292 286 282 280 281 283 285 288 290 293 295 297 300 302 305 307 310 312 314 316 318 320 321 323 326 329 332 335 337 339
279 281 282 282 281 279 281 288 286 286 287 288 288 289 287 285 284 284 284 284 286 287 289 291 293 295 298 300 303 306 309 311 312 314 316 318 319 321 324 327 330 333 335 337
279 279 280 282 281 280 285 286 287 286 285 287 288 287 285 284 284 284 284 284 285 286 287 289 291 293 296 299 302 305 307 309 311 312 314 316 317 319 322 325 328 331 333 335
278 279 280 281 282 282 285 289 289 288 286 289 288 285 284 282 282 283 283 284 285 286 286 288 290 293 296 299 302 304 306 308 309 311 313 314 315 317 320 322 325 328 331 333
275 276 277 279 281 283 288 289 289 288 287 287 285 284 282 282 281 281 282 282 283 285 286 289 291 294 296 299 301 303 305 306 307 309 310 311 313 315 317 320 323 326 328 331
275 275 276 278 280 283 287 288 287 287 287 283 283 283 282 282 282 283 283 283 284 286 288 289 292 294 296 298 300 301 303 304 305 307 308 309 310 313 315 318 321 323 326 328
276 276 278 279 280 284 286 284 284 284 283 282 282 282 281 281 282 283 284 284 285 287 289 291 293 294 296 297 299 300 302 302 303 305 306 307 309 311 313 316 318 321 323 326
277 278 278 278 280 282 283 283 283 283 282 282 282 282 282 282 282 283 284 285 286 288 290 292 293 294 295 296 297 299 300 301 302 303 305 307 309 311 313 315 317 319 321 323
277 276 276 278 280 282 282 283 283 283 283 284 284 284 284 284 284 285 286 286 288 289 290 291 292 294 295 295 296 298 299 299 301 302 304 306 307 309 311 314 316 317 318 321
280 278 279 281 283 282 282 282 282 282 283 284 284 285 286 287 286 287 287 288 289 290 291 292 292 293 294 295 296 297 297 298 300 302 304 305 307 308 310 312 314 315 316 318
285 282 281 282 282 282 283 283 284 286 287 287 287 288 287 288 289 289 290 290 291 291 292 293 293 294 294 295 296 297 297 298 300 302 304 305 307 308 310 312 314 315 314 316
Height
5887 5886 5884 5882 5880 5879 5878 5877 5875 5874 5872 5870 5868 5866 5864 5862 5860 5858 5856 5854 5851 5848 5845 5841 5838 5834 5829 5824 5818 5812 5806 5799 5793 5785 5777 5769 5760 5751 5742 5732 5721 5710 5698 5686
5884 5882 5880 5878 5877 5876 5875 5874 5872 5870 5868 5867 5865 5864 5862 5860 5858 5856 5853 5851 5848 5844 5841 5837 5833 5829 5824 5818 5813 5806 5800 5793 5785 5778 5769 5760 5751 5742 5732 5721 5710 5698 5685 5672
5880 5879 5877 5875 5874 5872 5871 5870 5868 5867 5865 5863 5862 5861 5859 5857 5854 5852 5850 5847 5844 5841 5837 5833 5828 5824 5818 5813 5807 5800 5793 5786 5778 5769 5761 5752 5742 5732 5722 5710 5698 5685 5672 5658
5876 5875 5873 5871 5870 5868 5867 5865 5864 5862 5861 5859 5858 5857 5855 5853 5850 5848 5846 5843 5840 5836 5832 5828 5823 5818 5812 5807 5800 5793 5786 5778 5770 5761 5752 5743 5733 5723 5712 5699 5686 5673 5659 5644
5873 5871 5869 5867 5866 5864 5862 5860 5859 5857 5855 5855 5853 5851 5851 5848 5845 5843 5841 5838 5835 5831 5827 5822 5817 5812 5806 5800 5793 5786 5778 5770 5762 5753 5744 5734 5724 5713 5701 5689 5675 5661 5646 5631
5869 5867 5865 5863 5861 5859 5857 5856 5854 5852 5850 5850 5848 5845 5846 5843 5841 5838 5836 5832 5829 5825 5821 5816 5811 5805 5799 5792 5785 5778 5770 5762 5753 5745 5735 5725 5715 5703 5691 5678 5665 5650 5635 5618
5865 5863 5861 5859 5856 5855 5853 5851 5848 5846 5844 5844 5841 5839 5841 5838 5835 5833 5830 5826 5823 5819 5814 5809 5804 5798 5791 5784 5777 5770 5762 5754 5745 5736 5727 5717 5706 5694 5681 5668 5654 5639 5623 5607
5860 5859 5856 5854 5851 5849 5847 5845 5843 5840 5838 5837 5834 5832 5836 5832 5829 5826 5823 5820 5816 5811 5807 5802 5797 5791 5784 5777 5770 5762 5754 5746 5737 5728 5718 5708 5696 5685 5672 5659 5645 5629 5613 5596
5853 5853 5851 5848 5846 5844 5841 5839 5836 5833 5829 5828 5827 5827 5828 5826 5822 5819 5816 5813 5809 5804 5799 5795 5789 5783 5776 5769 5762 5754 5746 5738 5729 5719 5709 5698 5687 5675 5663 5650 5635 5620 5604 5587
5847 5847 5846 5843 5840 5837 5835 5832 5830 5826 5822 5819 5819 5819 5821 5819 5815 5812 5809 5805 5801 5796 5791 5786 5781 5775 5768 5761 5753 5745 5737 5729 5720 5710 5700 5689 5678 5666 5654 5640 5626 5611 5595 5578
5840 5839 5840 5837 5834 5832 5829 5826 5822 5818 5815 5811 5808 5813 5814 5812 5808 5804 5800 5795 5791 5787 5782 5777 5772 5766 5759 5752 5744 5736 5728 5719 5710 5700 5690 5680 5669 5657 5645 5632 5617 5602 5586 5569
5832 5831 5831 5830 5828 5824 5821 5819 5815 5812 5808 5803 5798 5803 5808 5804 5799 5794 5790 5785 5781 5778 5774 5768 5763 5757 5750 5743 5735 5727 5718 5709 5700 5691 5681 5671 5660 5648 5636 5623 5608 5593 5577 5561
5825 5824 5823 5822 5822 5818 5813 5811 5807 5803 5799 5795 5790 5793 5798 5795 5790 5785 5779 5775 5771 5768 5764 5759 5753 5747 5740 5733 5725 5717 5708 5700 5691 5682 5672 5662 5651 5639 5627 5614 5600 5585 5569 5553
5817 5816 5815 5814 5811 5807 5805 5803 5799 5795 5791 5787 5784 5783 5787 5785 5780 5773 5767 5763 5760 5757 5753 5748 5742 5736 5730 5723 5715 5707 5699 5690 5681 5672 5662 5652 5641 5630 5618 5605 5592 5577 5562 5546
5807 5807 5806 5804 5802 5797 5794 5793 5791 5786 5783 5777 5775 5773 5774 5771 5765 5760 5756 5752 5749 5746 5742 5736 5731 5725 5718 5712 5704 5696 5688 5680 5671 5662 5653 5643 5632 5621 5609 5597 5583 5569 5554 5539
5797 5796 5794 5794 5793 5787 5783 5785 5782 5778 5773 5769 5765 5763 5763 5756 5752 5748 5745 5741 5738 5735 5730 5724 5719 5713 5707 5700 5693 5686 5678 5670 5661 5652 5643 5633 5622 5611 5600 5588 5575 5561 5547 5532
5788 5785 5782 5781 5780 5776 5775 5778 5772 5768 5765 5760 5755 5754 5750 5745 5741 5737 5733 5730 5726 5722 5717 5712 5706 5701 5695 5689 5682 5675 5668 5659 5651 5642 5633 5623 5612 5601 5590 5579 5567 5554 5540 5525
5777 5775 5770 5768 5766 5762 5770 5765 5762 5757 5755 5750 5744 5741 5737 5733 5729 5725 5721 5718 5713 5709 5704 5699 5694 5689 5683 5677 5670 5664 5657 5648 5640 5631 5622 5612 5602 5591 5581 5570 5558 5546 5533 5519
5766 5763 5759 5755 5750 5748 5755 5755 5748 5743 5743 5739 5730 5727 5724 5720 5717 5714 5709 5704 5700 5695 5691 5686 5681 5676 5671 5665 5658 5652 5645 5636 5628 5619 5611 5601 5591 5581 5571 5561 5550 5538 5526 5513
5754 5751 5747 5742 5736 5735 5744 5740 5734 5729 5728 5725 5717 5713 5709 5706 5704 5701 5696 5691 5687 5682 5677 5673 5668 5663 5658 5652 5645 5639 5632 5624 5615 5607 5599 5590 5580 5571 5561 5551 5541 5530 5518 5506
5739 5736 5734 5729 5722 5722 5731 5726 5719 5715 5714 5708 5703 5699 5695 5692 5689 5686 5682 5678 5673 5668 5664 5659 5655 5650 5645 5638 5632 5625 5619 5611 5602 5595 5587 5578 5569 5560 5551 5542 5533 5522 5511 5499
5723 5721 5719 5715 5710 5713 5715 5709 5705 5700 5695 5692 5688 5684 5679 5676 5674 5670 5666 5662 5658 5653 5649 5645 5640 5636 5631 5624 5617 5611 5605 5596 5588 5581 5574 5566 5558 5549 5541 5532 5523 5514 5503 5492
5709 5708 5704 5699 5699 5700 5696 5692 5689 5683 5678 5674 5671 5669 5664 5660 5658 5655 5651 5647 5643 5638 5634 5629 5624 5620 5615 5608 5602 5596 5590 5582 5574 5567 5560 5553 5546 5538 5530 5522 5514 5505 5495 5485
5694 5693 5687 5683 5685 5685 5681 5676 5672 5667 5661 5657 5654 5651 5648 5643 5641 5638 5635 5631 5627 5623 5618 5613 5608 5604 5599 5593 5587 5581 5574 5567 5560 5553 5547 5540 5533 5526 5519 5512 5504 5496 5487 5478
5679 5677 5672 5669 5671 5668 5666 5662 5656 5651 5646 5641 5638 5635 5631 5627 5624 5621 5618 5615 5611 5607 5603 5598 5592 5588 5583 5577 5572 5566 5559 5553 5546 5540 5534 5528 5521 5515 5508 5502 5495 5487 5479 5471
5666 5662 5658 5654 5655 5649 5646 5644 5640 5635 5630 5626 5623 5619 5616 5611 5607 5605 5603 5599 5596 5592 5587 5582 5577 5572 5568 5562 5557 5551 5545 5539 5533 5527 5521 5515 5509 5504 5498 5491 5485 5478 5471 5463